Home   Weather   Pärnu   Past weeks

Flag for Estonia Past Weather in Pärnu, Estonia — Yesterday and Last 2 Weeks

Now
48 °F

Fog.


Feels Like: 48 °F
Forecast: 47 / 61 °F
Wind: No wind

Location: Pjarnu

Current Time: Sep 25, 2016 at 10:18:46 PM

Latest Report: Sep 25, 2016 at 9:00 PM


Visibility: 1 mi

Pressure: 30.31 "Hg

Humidity: 94%

Dew Point: 47 °F

Location of PärnuLocation

Past Weather in Pärnu — Graph

°F

Pärnu Temperature Yesterday

Maximum temperature yesterday: 56 °F (at 4:00 PM)
Minimum temperature yesterday: 46 °F (at 7:00 AM)
Average temperature yesterday: 50 °F

High & Low Weather Summary for the Past Weeks

 TemperatureHumidityPressure
High69 °F (Sep 12, 4:00 PM)100% (Sep 21, 5:00 AM)30.31 "Hg (Sep 21, 5:00 AM)
Low39 °F (Sep 20, 7:00 AM)48% (Sep 18, 4:00 PM)29.93 "Hg (Sep 24, 1:00 AM)
Average53 °F83%30.12 "Hg
* Reported Sep 10 9:00 PM — Sep 25 9:00 PM, Pärnu, Weather by CustomWeather, © 2016

Note: Actual official high and low records may vary slightly from our data, if they occured in-between our weather recording intervals... More about our weather records

Advertising

Pärnu Weather History for the Previous 24 Hours

Scroll right to see more
 ConditionsComfort  
Time TempWeatherWind HumidityBarometerVisibility
9:00 PM
Sun, Sep 25
48 °FFog.No wind94%30.31 "Hg1 mi
8:00 PM52 °FClear.2 mph88%30.31 "Hg18 mi
7:00 PM53 °FSunny.2 mph90%30.30 "Hg28 mi
6:00 PM58 °FOvercast.3 mph78%30.30 "Hg28 mi
5:00 PM57 °FOvercast.5 mph76%30.30 "Hg31 mi
4:00 PM57 °FOvercast.6 mph74%30.30 "Hg28 mi
3:00 PM58 °FSunny.5 mph69%30.31 "Hg28 mi
2:00 PM56 °FOvercast.5 mph69%30.30 "Hg28 mi
1:00 PM57 °FSunny.5 mph67%30.30 "Hg25 mi
12:00 PM57 °FOvercast.3 mph69%30.30 "Hg25 mi
11:00 AM55 °FSunny.3 mph71%30.30 "Hg19 mi
10:00 AM53 °FPassing clouds.2 mph76%30.30 "Hg22 mi
9:00 AM50 °FOvercast.2 mph84%30.29 "Hg17 mi
8:00 AM49 °FOvercast.2 mph87%30.29 "Hg14 mi
7:00 AM47 °FOvercast.No wind90%30.29 "Hg17 mi
6:00 AM46 °FOvercast.No wind91%30.28 "Hg14 mi
5:00 AM47 °FOvercast.No wind89%30.27 "Hg17 mi
4:00 AM47 °FOvercast.1 mph87%30.25 "Hg17 mi
3:00 AM48 °FOvercast.No wind89%30.25 "Hg19 mi
2:00 AM48 °FOvercast.No wind89%30.24 "Hg14 mi
1:00 AM48 °FOvercast.1 mph85%30.23 "Hg17 mi
12:00 AM48 °FOvercast.No wind89%30.22 "Hg18 mi
11:00 PM
Sat, Sep 24
48 °FOvercast.No wind88%30.21 "Hg18 mi
10:00 PM49 °FOvercast.No wind84%30.20 "Hg22 mi
Weather by CustomWeather, © 2016

See weather overviewHow to use our weather pages